TimeEST,TemperatureF,Dew PointF,Humidity,Sea Level PressureIn,VisibilityMPH,Wind Direction,Wind SpeedMPH,Gust SpeedMPH,PrecipitationIn,Events,Conditions,WindDirDegrees,DateUTC
12:15 AM,17.6,12.2,79,30.39,10.0,WSW,4.6,-,N/A,,Clear,240,2012-12-13 05:15:00
12:35 AM,17.6,10.4,73,30.38,10.0,West,5.8,-,N/A,,Clear,260,2012-12-13 05:35:00
12:55 AM,17.6,15.8,93,30.39,10.0,Calm,Calm,-,N/A,,Clear,0,2012-12-13 05:55:00
1:15 AM,17.6,12.2,79,30.39,10.0,Calm,Calm,-,N/A,,Clear,0,2012-12-13 06:15:00
1:35 AM,17.6,15.8,93,30.39,10.0,Calm,Calm,-,N/A,,Clear,0,2012-12-13 06:35:00
1:55 AM,15.8,12.2,86,30.40,10.0,WSW,3.5,-,N/A,,Clear,240,2012-12-13 06:55:00
2:15 AM,15.8,15.8,100,30.40,10.0,NE,4.6,-,N/A,,Clear,50,2012-12-13 07:15:00
2:35 AM,17.6,15.8,93,30.40,10.0,Calm,Calm,-,N/A,,Clear,0,2012-12-13 07:35:00
2:55 AM,17.6,17.6,100,30.39,10.0,Calm,Calm,-,N/A,,Clear,0,2012-12-13 07:55:00
3:15 AM,15.8,12.2,86,30.39,10.0,West,3.5,-,N/A,,Clear,280,2012-12-13 08:15:00
3:35 AM,15.8,15.8,100,30.38,10.0,Calm,Calm,-,N/A,,Clear,0,2012-12-13 08:35:00
3:55 AM,17.6,12.2,79,30.38,10.0,Calm,Calm,-,N/A,,Clear,0,2012-12-13 08:55:00
4:15 AM,15.8,10.4,79,30.38,10.0,West,4.6,-,N/A,,Clear,260,2012-12-13 09:15:00
4:35 AM,15.8,12.2,86,30.38,10.0,WNW,6.9,-,N/A,,Clear,290,2012-12-13 09:35:00
4:55 AM,17.6,17.6,100,30.39,10.0,West,5.8,-,N/A,,Clear,280,2012-12-13 09:55:00
5:15 AM,17.6,15.8,93,30.39,10.0,WNW,4.6,-,N/A,,Clear,290,2012-12-13 10:15:00
5:35 AM,17.6,17.6,100,30.40,10.0,Calm,Calm,-,N/A,,Clear,0,2012-12-13 10:35:00
5:55 AM,17.6,14.0,86,30.40,10.0,Calm,Calm,-,N/A,,Clear,0,2012-12-13 10:55:00
6:35 AM,15.8,15.8,100,30.40,10.0,Calm,Calm,-,N/A,,Clear,0,2012-12-13 11:35:00
6:55 AM,17.6,15.8,93,30.41,10.0,Calm,Calm,-,N/A,,Clear,0,2012-12-13 11:55:00
7:15 AM,15.8,14.0,93,30.42,10.0,SW,3.5,-,N/A,,Clear,230,2012-12-13 12:15:00
7:35 AM,17.6,12.2,79,30.42,10.0,Calm,Calm,-,N/A,,Clear,0,2012-12-13 12:35:00
7:55 AM,17.6,12.2,79,30.43,10.0,Calm,Calm,-,N/A,,Clear,0,2012-12-13 12:55:00
8:15 AM,17.6,10.4,73,30.42,10.0,Calm,Calm,-,N/A,,Clear,0,2012-12-13 13:15:00
8:35 AM,23.0,21.2,93,30.42,10.0,Calm,Calm,-,N/A,,Clear,0,2012-12-13 13:35:00
8:55 AM,28.4,24.8,86,30.42,10.0,North,4.6,-,N/A,,Clear,360,2012-12-13 13:55:00
9:15 AM,33.8,33.8,100,30.43,10.0,Calm,Calm,-,N/A,,Clear,0,2012-12-13 14:15:00
9:35 AM,35.6,26.6,70,30.45,10.0,West,3.5,-,N/A,,Clear,280,2012-12-13 14:35:00
9:55 AM,37.4,37.4,100,30.45,10.0,Calm,Calm,-,N/A,,Clear,0,2012-12-13 14:55:00
10:15 AM,37.4,26.6,65,30.43,10.0,West,3.5,-,N/A,,Clear,270,2012-12-13 15:15:00
10:35 AM,37.4,35.6,93,30.42,10.0,North,3.5,-,N/A,,Clear,360,2012-12-13 15:35:00
10:55 AM,37.4,33.8,87,30.40,10.0,North,5.8,-,N/A,,Clear,10,2012-12-13 15:55:00
11:15 AM,39.2,35.6,87,30.39,10.0,North,4.6,-,N/A,,Clear,360,2012-12-13 16:15:00
11:35 AM,39.2,28.4,65,30.38,10.0,ENE,3.5,-,N/A,,Clear,70,2012-12-13 16:35:00
11:55 AM,39.2,35.6,87,30.38,10.0,NE,4.6,-,N/A,,Clear,50,2012-12-13 16:55:00
12:15 PM,41.0,39.2,93,30.37,10.0,South,4.6,-,N/A,,Clear,190,2012-12-13 17:15:00
12:55 PM,41.0,41.0,100,30.38,10.0,SSE,6.9,-,N/A,,Partly Cloudy,160,2012-12-13 17:55:00
1:15 PM,41.0,41.0,100,30.37,10.0,ESE,4.6,-,N/A,,Partly Cloudy,120,2012-12-13 18:15:00
1:35 PM,42.8,39.2,87,30.37,10.0,SE,4.6,-,N/A,,Partly Cloudy,140,2012-12-13 18:35:00
1:55 PM,42.8,39.2,87,30.37,10.0,Calm,Calm,-,N/A,,Mostly Cloudy,0,2012-12-13 18:55:00
2:15 PM,41.0,39.2,93,30.36,10.0,SSE,4.6,-,N/A,,Mostly Cloudy,150,2012-12-13 19:15:00
2:35 PM,39.2,39.2,100,30.36,10.0,SSE,4.6,-,N/A,,Partly Cloudy,150,2012-12-13 19:35:00
2:55 PM,39.2,39.2,100,30.36,10.0,ESE,4.6,-,N/A,,Clear,120,2012-12-13 19:55:00
3:15 PM,39.2,35.6,87,30.35,10.0,Calm,Calm,-,N/A,,Partly Cloudy,0,2012-12-13 20:15:00
3:35 PM,37.4,35.6,93,30.35,10.0,SE,3.5,-,N/A,,Clear,140,2012-12-13 20:35:00
3:55 PM,37.4,37.4,100,30.34,10.0,SE,3.5,-,N/A,,Clear,130,2012-12-13 20:55:00
4:15 PM,35.6,35.6,100,30.34,10.0,Calm,Calm,-,N/A,,Clear,0,2012-12-13 21:15:00
4:35 PM,30.2,28.4,93,30.34,10.0,Calm,Calm,-,N/A,,Clear,0,2012-12-13 21:35:00
4:55 PM,28.4,26.6,93,30.34,10.0,SW,3.5,-,N/A,,Clear,220,2012-12-13 21:55:00
5:15 PM,28.4,26.6,93,30.34,10.0,Calm,Calm,-,N/A,,Clear,0,2012-12-13 22:15:00
5:35 PM,26.6,26.6,100,30.34,10.0,Calm,Calm,-,N/A,,Clear,0,2012-12-13 22:35:00
8:15 PM,21.2,17.6,86,30.32,10.0,Calm,Calm,-,N/A,,Clear,0,2012-12-14 01:15:00
8:35 PM,19.4,19.4,100,30.31,10.0,SW,4.6,-,N/A,,Clear,230,2012-12-14 01:35:00
8:55 PM,21.2,-9999,N/A,30.31,10.0,Calm,Calm,-,N/A,,Clear,0,2012-12-14 01:55:00
9:15 PM,19.4,19.4,100,30.29,10.0,Calm,Calm,-,N/A,,Clear,0,2012-12-14 02:15:00
9:35 PM,19.4,17.6,93,30.28,10.0,Calm,Calm,-,N/A,,Clear,0,2012-12-14 02:35:00
9:55 PM,19.4,17.6,93,30.28,10.0,Calm,Calm,-,N/A,,Clear,0,2012-12-14 02:55:00
10:15 PM,19.4,10.4,68,30.28,10.0,Calm,Calm,-,N/A,,Clear,0,2012-12-14 03:15:00
10:35 PM,17.6,12.2,79,30.27,10.0,Calm,Calm,-,N/A,,Clear,0,2012-12-14 03:35:00
10:55 PM,17.6,12.2,79,30.27,10.0,Calm,Calm,-,N/A,,Clear,0,2012-12-14 03:55:00
11:15 PM,17.6,10.4,73,30.27,10.0,Calm,Calm,-,N/A,,Clear,0,2012-12-14 04:15:00
11:35 PM,17.6,12.2,79,30.25,10.0,SW,3.5,-,N/A,,Clear,220,2012-12-14 04:35:00
11:55 PM,19.4,12.2,74,30.24,10.0,Calm,Calm,-,N/A,,Clear,0,2012-12-14 04:55:00